Location: Canazei
(46.4667°N, 11.7667°E)
Time: 13:39:24
(UTC+00:00)

N. Korean satellite - Pass Details

Date: 04 October 2021
Orbit: 450 x 495 km, 97.3° (Epoch: 19 October)

Event Time Altitude Azimuth Distance (km) Brightness Sun altitude
Rises 03:59:28 0° 21° (NNE) 2,559 10.7 -13.9°
Reaches altitude 10° 04:01:42 10° 32° (NNE) 1,681 9.9 -13.5°
Maximum altitude 04:04:58 32° 97° (E) 871 8.6 -12.9°
Drops below altitude 10° 04:08:15 10° 161° (SSE) 1,684 9.5 -12.4°
Sets 04:10:28 0° 172° (S) 2,564 10.3 -12.0°
